Weather History for Palermo, Italy

Change the Weather History Date:

Tuesday, January 28, 2014

  Actual Average Record
Temperature  
Mean Temperature 44 °F -  
Max Temperature 57 °F 59 °F 64 °F (2006)
Min Temperature 32 °F 50 °F 32 °F (2014)
Degree Days  
Heating Degree Days 20    
Moisture  
Dew Point 42 °F    
Average Humidity 66    
Maximum Humidity 100    
Minimum Humidity 18    
Precipitation  
Precipitation 0.01 in 0.09 in - ()
Sea Level Pressure  
Sea Level Pressure 29.56 in    
Wind  
Wind Speed 16 mph ()    
Max Wind Speed 33 mph    
Max Gust Speed 31 mph    
Visibility 6.2 miles    
Events Rain    
Averages and records for this station are not official NWS values.
T = Trace of Precipitation, MM = Missing Value Source: Averaged Metar Reports

Daily Weather History Graph

Daily Weather History Graph

Search for Another Location

Airport:

Trip Planner

Search our weather history database for the weather conditions in past years. The results will help you decide how hot, cold, wet, or windy it might be!

Date:

Astronomy

Jan. 28, 2014 Rise Set
Actual Time 7:15 AM CET 5:25 PM CET
Civil Twilight 6:47 AM CET 5:53 PM CET
Nautical Twilight 6:15 AM CET 6:25 PM CET
Astronomical Twilight 5:44 AM CET 6:56 PM CET
Moon 4:40 AM CET (1/28) 2:57 PM CET (1/28)
Length of Visible Light 11h 05m
Length of Day
10h 09m
Waning Crescent, 9% of the Moon is Illuminated
Jan 28
Waning Crescent
Jan 30
New
Feb 6
First Quarter
Feb 15
Full
Feb 22
Last Quarter

Hourly Weather History & Observations

Time (CET) Temp. Dew Point Humidity Pressure Visibility Wind Dir Wind Speed Gust Speed Precip Events Conditions
12:20 AM 57.2 °F 50.0 °F 77% 29.53 in 6.2 mi West 18.4 mph - N/A   Mostly Cloudy
12:50 AM 57.2 °F 50.0 °F 77% 29.50 in 6.2 mi West 18.4 mph - N/A   Mostly Cloudy
1:00 AM 58 °F 50 °F 68% 29.53 in 6 mi West 16.1 mph - -   Mostly Cloudy
5:50 AM 50.0 °F 44.6 °F 82% 29.47 in 6.2 mi WNW 18.4 mph - N/A   Scattered Clouds
6:20 AM 55.4 °F 44.6 °F 67% 29.50 in 6.2 mi West 15.0 mph - N/A   Scattered Clouds
6:50 AM 55.4 °F 44.6 °F 67% 29.50 in 6.2 mi West 16.1 mph - N/A   Mostly Cloudy
7:20 AM 55.4 °F 42.8 °F 63% 29.50 in 6.2 mi WNW 17.3 mph - N/A   Scattered Clouds
7:50 AM 51.8 °F 41.0 °F 67% 29.50 in 6.2 mi West 16.1 mph - N/A   Scattered Clouds
8:20 AM 55.4 °F 44.6 °F 67% 29.50 in 6.2 mi WNW 16.1 mph - N/A   Scattered Clouds
8:50 AM 55.4 °F 42.8 °F 63% 29.50 in 6.2 mi WNW 20.7 mph - N/A   Scattered Clouds
9:20 AM 55.4 °F 42.8 °F 63% 29.50 in 6.2 mi WNW 16.1 mph - N/A   Scattered Clouds
9:50 AM 55.4 °F 44.6 °F 67% 29.53 in 6.2 mi WNW 18.4 mph - N/A   Scattered Clouds
10:00 AM 56 °F 45 °F 57% 29.55 in 6 mi WNW 13.8 mph - -   Partly Cloudy
10:20 AM 55.4 °F 42.8 °F 63% 29.53 in 6.2 mi NW 17.3 mph - N/A   Scattered Clouds
10:50 AM 55.4 °F 44.6 °F 67% 29.53 in 6.2 mi NW 17.3 mph - N/A   Scattered Clouds
11:20 AM 55.4 °F 42.8 °F 63% 29.53 in 6.2 mi NW 19.6 mph - N/A   Scattered Clouds
11:50 AM 51.8 °F 32.0 °F 47% 29.53 in 6.2 mi NNW 15.0 mph - N/A   Scattered Clouds
12:20 PM 55.4 °F 42.8 °F 63% 29.53 in 6.2 mi NW 15.0 mph - N/A   Scattered Clouds
12:50 PM 57.2 °F 44.6 °F 63% 29.53 in 6.2 mi NW 17.3 mph - N/A   Scattered Clouds
1:00 PM 32 °F 32 °F 100%  in 6 mi Calm Calm - -   Partly Cloudy
1:20 PM 55.4 °F 44.6 °F 67% 29.53 in 6.2 mi WNW 20.7 mph - N/A   Scattered Clouds
1:50 PM 55.4 °F 44.6 °F 67% 29.53 in 6.2 mi WNW 18.4 mph - N/A   Partly Cloudy
2:20 PM 55.4 °F 44.6 °F 67% 29.53 in 6.2 mi WNW 19.6 mph - N/A   Partly Cloudy
2:50 PM 55.4 °F 12.2 °F 18% 29.53 in 6.2 mi West 17.3 mph - N/A   Partly Cloudy
3:20 PM 55.4 °F 44.6 °F 67% 29.56 in 6.2 mi West 17.3 mph - N/A   Partly Cloudy
3:50 PM 55.4 °F 44.6 °F 67% 29.56 in 6.2 mi WNW 17.3 mph - N/A   Partly Cloudy
4:00 PM 56 °F 43 °F 52% 29.58 in 6 mi West 13.8 mph - -   Scattered Clouds
4:20 PM 55.4 °F 44.6 °F 67% 29.56 in 6.2 mi West 16.1 mph - N/A   Scattered Clouds
4:50 PM 55.4 °F 41.0 °F 58% 29.59 in 6.2 mi WNW 17.3 mph - N/A   Scattered Clouds
5:20 PM 55.4 °F 41.0 °F 58% 29.56 in 6.2 mi WNW 12.7 mph - N/A   Scattered Clouds
5:50 PM 53.6 °F 44.6 °F 72% 29.59 in 6.2 mi WSW 23.0 mph - N/A   Mostly Cloudy
6:20 PM 55.4 °F 42.8 °F 63% 29.59 in 6.2 mi WSW 15.0 mph - N/A   Scattered Clouds
6:50 PM 55.4 °F 44.6 °F 67% 29.59 in 6.2 mi WSW 18.4 mph - N/A   Scattered Clouds
7:00 PM 32 °F 32 °F 100%  in 6 mi Calm Calm - -   Partly Cloudy
7:20 PM 53.6 °F 42.8 °F 67% 29.59 in 6.2 mi WSW 18.4 mph 31.1 mph N/A   Scattered Clouds
7:50 PM 57.2 °F 46.4 °F 67% 29.59 in 6.2 mi West 23.0 mph - N/A   Scattered Clouds
8:20 PM 57.2 °F 44.6 °F 63% 29.62 in 6.2 mi West 20.7 mph - N/A   Scattered Clouds
8:50 PM 55.4 °F 41.0 °F 58% 29.59 in 6.2 mi West 33.4 mph - N/A   Scattered Clouds
9:20 PM 55.4 °F 37.4 °F 51% 29.62 in 6.2 mi West 16.1 mph - N/A   Scattered Clouds
9:50 PM 53.6 °F 41.0 °F 62% 29.65 in 6.2 mi WNW 27.6 mph - N/A Rain Light Rain Showers
10:00 PM 32 °F 32 °F 100%  in 6 mi Calm Calm - -   Partly Cloudy
10:20 PM 53.6 °F 39.2 °F 58% 29.65 in 6.2 mi NW 17.3 mph - N/A   Mostly Cloudy
10:50 PM 55.4 °F 41.0 °F 58% 29.65 in 6.2 mi West 11.5 mph - N/A   Mostly Cloudy
11:20 PM 55.4 °F 42.8 °F 63% 29.65 in 6.2 mi West 24.2 mph - N/A   Mostly Cloudy
11:50 PM 55.4 °F 42.8 °F 63% 29.65 in 6.2 mi West 23.0 mph - N/A   Scattered Clouds